| time (UTC) | temp C | wind direction | speed KPH | gust KPH | rain 1hr cm | rain 24hr cm | rain mn cm | humidity % | barometer mb |
| 20260507000122 | 8 | 281 | 1.6 | 4.8 | 0.00 | 0.81 | 0.81 | 58 | 1010.5 |
| 20260506234612 | 8 | 279 | 0.0 | 4.8 | 0.00 | 0.81 | 0.81 | 58 | 1010.5 |
| 20260506233052 | 8 | 66 | 1.6 | 8.0 | 0.00 | 0.81 | 0.81 | 58 | 1010.6 |
| 20260506231549 | 8 | 182 | 0.0 | 6.4 | 0.00 | 0.81 | 0.81 | 58 | 1010.5 |
| 20260506230057 | 8 | 234 | 1.6 | 6.4 | 0.00 | 0.81 | 0.81 | 59 | 1009.9 |
| 20260506224550 | 9 | 36 | 1.6 | 6.4 | 0.00 | 0.81 | 0.81 | 59 | 1009.7 |
| 20260506223041 | 9 | 171 | 0.0 | 12.9 | 0.03 | 0.81 | 0.81 | 59 | 1009.3 |
| 20260506221550 | 9 | 105 | 3.2 | 17.7 | 0.03 | 0.81 | 0.81 | 59 | 1008.5 |
| 20260506220043 | 10 | 262 | 4.8 | 17.7 | 0.03 | 0.81 | 0.81 | 61 | 1008.0 |
| 20260506214533 | 10 | 341 | 6.4 | 25.7 | 0.00 | 0.79 | 0.79 | 61 | 1007.5 |
| 20260506213035 | 11 | 50 | 3.2 | 14.5 | 0.00 | 0.79 | 0.79 | 62 | 1007.1 |
| 20260506211538 | 11 | 267 | 4.8 | 17.7 | 0.00 | 0.79 | 0.79 | 62 | 1007.1 |
| 20260506210032 | 12 | 310 | 3.2 | 17.7 | 0.00 | 0.79 | 0.79 | 62 | 1006.7 |
| 20260506204523 | 15 | 343 | 4.8 | 16.1 | 0.00 | 0.79 | 0.79 | 65 | 1006.6 |
| 20260506203018 | 15 | 230 | 1.6 | 6.4 | 0.00 | 0.79 | 0.79 | 65 | 1006.1 |
| 20260506201516 | 15 | 215 | 4.8 | 12.9 | 0.00 | 0.79 | 0.79 | 65 | 1006.3 |
| 20260506200017 | 15 | 236 | 3.2 | 12.9 | 0.00 | 0.79 | 0.79 | 65 | 1006.4 |
| 20260506194514 | 15 | 240 | 3.2 | 14.5 | 0.00 | 0.79 | 0.79 | 65 | 1006.4 |
| 20260506193018 | 15 | 250 | 4.8 | 14.5 | 0.00 | 0.79 | 0.79 | 65 | 1006.4 |
| 20260506191512 | 15 | 230 | 3.2 | 11.3 | 0.00 | 0.79 | 0.79 | 65 | 1006.4 |
| 20260506190009 | 14 | 246 | 4.8 | 17.7 | 0.00 | 0.79 | 0.79 | 65 | 1006.7 |
| 20260506184508 | 14 | 216 | 8.0 | 16.1 | 0.00 | 0.79 | 0.79 | 65 | 1006.6 |
| 20260506183006 | 14 | 220 | 6.4 | 17.7 | 0.03 | 0.79 | 0.79 | 65 | 1006.8 |
| 20260506181514 | 14 | 236 | 8.0 | 17.7 | 0.03 | 0.79 | 0.79 | 64 | 1006.8 |
| 20260506180004 | 14 | 228 | 4.8 | 9.7 | 0.08 | 0.79 | 0.79 | 64 | 1006.9 |
| 20260506174502 | 14 | 166 | 3.2 | 14.5 | 0.13 | 0.79 | 0.79 | 64 | 1006.8 |
| 20260506173004 | 15 | 228 | 3.2 | 11.3 | 0.13 | 0.76 | 0.76 | 64 | 1006.8 |
| 20260506171609 | 14 | 239 | 6.4 | 12.9 | 0.13 | 0.76 | 0.76 | 63 | 1007.0 |
| 20260506170112 | 14 | 230 | 3.2 | 11.3 | 0.08 | 0.71 | 0.71 | 63 | 1007.0 |
| 20260506164559 | 14 | 224 | 1.6 | 8.0 | 0.10 | 0.66 | 0.66 | 62 | 1007.0 |
| 20260506163100 | 14 | 259 | 4.8 | 9.7 | 0.15 | 0.64 | 0.64 | 62 | 1006.9 |
| 20260506161556 | 15 | 227 | 1.6 | 4.8 | 0.20 | 0.64 | 0.64 | 62 | 1007.0 |
| 20260506160055 | 14 | 227 | 3.2 | 12.9 | 0.23 | 0.64 | 0.64 | 61 | 1007.1 |
| 20260506154610 | 14 | 229 | 3.2 | 11.3 | 0.20 | 0.56 | 0.56 | 60 | 1007.4 |
| 20260506153054 | 15 | 242 | 3.2 | 11.3 | 0.10 | 0.46 | 0.46 | 59 | 1007.5 |
| 20260506151552 | 15 | 231 | 3.2 | 6.4 | 0.10 | 0.43 | 0.43 | 58 | 1007.3 |
| 20260506150051 | 15 | 236 | 1.6 | 6.4 | 0.13 | 0.41 | 0.41 | 58 | 1007.1 |
| 20260506144555 | 15 | 225 | 3.2 | 6.4 | 0.15 | 0.36 | 0.36 | 57 | 1007.1 |
| 20260506143050 | 15 | 233 | 0.0 | 4.8 | 0.20 | 0.36 | 0.36 | 57 | 1007.2 |
| 20260506141548 | 14 | 233 | 0.0 | 3.2 | 0.20 | 0.30 | 0.30 | 56 | 1007.3 |
| 20260506140046 | 14 | 233 | 1.6 | 6.4 | 0.23 | 0.28 | 0.28 | 56 | 1007.6 |
| 20260506134546 | 15 | 233 | 0.0 | 8.0 | 0.18 | 0.20 | 0.20 | 56 | 1007.8 |
| 20260506133058 | 15 | 232 | 1.6 | 6.4 | 0.15 | 0.15 | 0.15 | 55 | 1007.9 |
| 20260506131545 | 15 | 233 | 3.2 | 11.3 | 0.10 | 0.10 | 0.10 | 56 | 1008.1 |
| 20260506130044 | 15 | 232 | 4.8 | 9.7 | 0.05 | 0.05 | 0.05 | 57 | 1008.1 |
| 20260506124543 | 15 | 223 | 3.2 | 12.9 | 0.03 | 0.03 | 0.03 | 57 | 1007.8 |
| 20260506123044 | 16 | 228 | 3.2 | 11.3 | 0.00 | 0.00 | 0.00 | 54 | 1007.5 |
| 20260506121537 | 16 | 221 | 3.2 | 8.0 | 0.00 | 0.00 | 0.00 | 51 | 1007.6 |
| 20260506120038 | 16 | 227 | 0.0 | 3.2 | 0.00 | 0.00 | 0.00 | 50 | 1007.6 |
| 20260506114540 | 16 | 227 | 1.6 | 6.4 | 0.00 | 0.00 | 0.00 | 50 | 1007.7 |
| 20260506113035 | 16 | 238 | 1.6 | 4.8 | 0.00 | 0.00 | 0.00 | 49 | 1007.5 |
| 20260506111534 | 16 | 238 | 0.0 | 6.4 | 0.00 | 0.00 | 0.00 | 48 | 1007.5 |
| 20260506110040 | 16 | 237 | 3.2 | 8.0 | 0.00 | 0.00 | 0.00 | 47 | 1007.6 |
| 20260506104555 | 16 | 220 | 4.8 | 9.7 | 0.00 | 0.00 | 0.00 | 47 | 1007.4 |
| 20260506103028 | 16 | 229 | 1.6 | 4.8 | 0.00 | 0.00 | 0.00 | 49 | 1007.0 |
| 20260506101526 | 15 | 229 | 1.6 | 4.8 | 0.00 | 0.00 | 0.00 | 50 | 1007.2 |
| 20260506100025 | 15 | 229 | 0.0 | 0.0 | 0.00 | 0.00 | 0.00 | 50 | 1007.2 |
| 20260506094532 | 15 | 229 | 1.6 | 6.4 | 0.00 | 0.00 | 0.00 | 51 | 1007.4 |
| 20260506093024 | 15 | 229 | 0.0 | 0.0 | 0.00 | 0.00 | 0.00 | 50 | 1007.1 |
| 20260506091523 | 15 | 229 | 0.0 | 0.0 | 0.00 | 0.00 | 0.00 | 50 | 1007.1 |
| 20260506090021 | 15 | 229 | 0.0 | 0.0 | 0.00 | 0.00 | 0.00 | 50 | 1007.5 |
| 20260506084521 | 15 | 229 | 0.0 | 0.0 | 0.00 | 0.05 | 0.00 | 50 | 1007.5 |
| 20260506083035 | 15 | 229 | 0.0 | 0.0 | 0.00 | 0.05 | 0.00 | 49 | 1007.7 |
| 20260506081520 | 15 | 229 | 0.0 | 1.6 | 0.00 | 0.05 | 0.00 | 48 | 1007.4 |
| 20260506073016 | 15 | 229 | 0.0 | 4.8 | 0.00 | 0.05 | 0.00 | 48 | 1007.8 |
| 20260506071513 | 15 | 229 | 0.0 | 0.0 | 0.00 | 0.05 | 0.00 | 50 | 1007.8 |
| 20260506061508 | 13 | 229 | 0.0 | 0.0 | 0.00 | 0.05 | 0.00 | 50 | 1008.1 |
| 20260506044613 | 14 | 229 | 0.0 | 0.0 | 0.00 | 0.05 | 0.00 | 50 | 1008.5 |
| 20260506043059 | 15 | 229 | 0.0 | 0.0 | 0.00 | 0.05 | 0.00 | 50 | 1008.7 |
| 20260506041557 | 15 | 229 | 0.0 | 0.0 | 0.00 | 0.05 | 0.00 | 50 | 1008.7 |
| 20260506040055 | 15 | 360 | 0.0 | 0.0 | 0.00 | 0.05 | 0.00 | 50 | 1008.7 |
| 20260506034600 | 16 | 227 | 0.0 | 0.0 | 0.00 | 0.05 | 0.05 | 50 | 1008.8 |
| 20260506033054 | 16 | 229 | 0.0 | 1.6 | 0.00 | 0.05 | 0.05 | 48 | 1008.6 |
| 20260506031557 | 17 | 229 | 0.0 | 3.2 | 0.00 | 0.05 | 0.05 | 47 | 1008.7 |
| 20260506030053 | 17 | 229 | 0.0 | 3.2 | 0.00 | 0.05 | 0.05 | 47 | 1008.7 |
| 20260506024552 | 17 | 229 | 1.6 | 3.2 | 0.00 | 0.05 | 0.05 | 47 | 1008.6 |
| 20260506023054 | 17 | 360 | 0.0 | 0.0 | 0.00 | 0.05 | 0.05 | 45 | 1008.7 |
| 20260506021556 | 18 | 360 | 0.0 | 0.0 | 0.00 | 0.05 | 0.05 | 43 | 1008.8 |
| 20260506020050 | 20 | 229 | 1.6 | 4.8 | 0.00 | 0.05 | 0.05 | 40 | 1008.7 |
| 20260506014550 | 20 | 229 | 0.0 | 3.2 | 0.00 | 0.05 | 0.05 | 39 | 1008.7 |
| 20260506013049 | 20 | 229 | 1.6 | 4.8 | 0.00 | 0.05 | 0.05 | 38 | 1008.5 |
| 20260506011552 | 20 | 229 | 0.0 | 3.2 | 0.00 | 0.05 | 0.05 | 40 | 1008.3 |
| 20260506010054 | 20 | 229 | 0.0 | 3.2 | 0.00 | 0.05 | 0.05 | 38 | 1008.0 |
| 20260506004546 | 21 | 229 | 0.0 | 3.2 | 0.00 | 0.05 | 0.05 | 37 | 1007.9 |
| 20260506003047 | 21 | 229 | 0.0 | 3.2 | 0.00 | 0.05 | 0.05 | 37 | 1007.9 |
| 20260506001547 | 21 | 229 | 0.0 | 3.2 | 0.00 | 0.05 | 0.05 | 36 | 1007.8 |